Temp
70 71 72 72 72 74 74 79 74 75 77 70 72 73 73 69 71 70 72 69 66 64 61 59 60 59 57 56 56 53 52 49 50 49 50 51 53 53 52 54 53 53 54
66 70 70 69 71 71 72 73 74 73 76 76 71 70 63 63 64 66 66 65 61 60 59 58 59 57 55 55 54 53 50 49 49 47 46 45 48 51 54 51 53 51 51
65 67 69 69 69 73 72 73 73 73 73 72 69 61 59 57 56 58 57 59 57 57 58 58 58 57 54 52 51 51 52 47 47 48 46 42 41 43 49 49 49 50 47
65 67 68 66 67 72 73 73 72 72 71 72 69 63 62 58 53 55 55 56 56 57 56 56 56 56 55 54 51 52 49 48 45 46 52 46 44 39 38 45 47 48 49
62 63 64 67 67 66 63 70 72 70 70 74 71 63 59 54 54 53 54 53 54 56 57 56 55 56 54 53 50 49 48 47 45 45 44 44 43 43 38 35 39 43 45
59 61 62 64 63 63 63 64 66 68 68 68 67 62 59 53 51 52 50 49 52 54 57 58 54 53 51 50 48 48 47 46 45 45 44 43 41 39 38 35 35 36 41
58 59 60 60 61 62 61 63 64 65 66 65 63 62 60 54 50 50 49 51 51 53 54 55 55 51 50 50 48 47 46 46 43 43 42 43 42 43 41 38 34 33 36
58 57 57 60 60 61 61 62 63 63 64 64 62 62 57 53 52 52 51 51 52 52 55 55 52 51 50 49 48 46 45 45 43 42 42 41 41 42 41 38 34 32 32
58 55 58 59 60 60 61 61 62 63 62 62 63 59 57 54 52 50 52 51 52 55 54 52 51 50 50 49 48 45 44 44 43 42 41 40 41 41 40 39 37 32 29
57 57 57 58 60 63 61 62 62 62 61 62 61 59 56 54 53 53 51 54 55 55 53 51 52 50 49 48 47 45 45 44 42 42 41 40 40 39 38 37 37 35 31
56 56 56 58 59 61 60 60 61 63 61 60 60 52 51 52 53 53 54 54 53 54 53 53 51 48 48 48 46 45 45 43 42 41 41 40 40 37 37 36 35 34 32
56 56 54 55 56 58 59 59 63 64 59 57 53 50 50 51 51 51 52 53 53 53 53 49 51 50 48 47 46 45 45 42 41 41 40 39 44 36 36 34 34 33 33
56 53 53 53 54 59 59 61 63 59 55 51 49 49 49 50 50 51 52 53 52 52 52 50 48 45 46 46 45 44 43 42 41 40 39 38 37 34 34 33 32 32 37
55 54 51 51 53 57 57 59 56 56 51 49 48 49 50 50 51 52 52 51 51 50 48 47 45 45 46 45 45 44 42 41 41 41 39 38 37 35 33 34 32 34 31
55 53 49 50 55 55 55 55 54 50 50 48 49 50 51 51 51 50 50 49 49 48 46 44 44 45 45 46 41 41 40 38 38 38 39 39 40 44 43 39 32 31 31
50 50 50 50 53 52 50 50 49 48 49 49 48 50 49 49 48 48 47 46 46 45 45 43 42 40 46 44 43 42 37 37 36 35 36 37 41 40 44 44 43 41 35
49 48 50 49 48 48 48 45 45 48 48 47 47 47 47 46 45 45 44 42 43 42 42 41 42 42 40 43 42 42 37 35 34 34 35 36 41 39 35 39 42 40 41
50 51 48 47 46 47 46 47 47 46 46 45 45 46 45 45 45 44 44 42 44 42 41 41 41 40 42 42 41 41 35 33 34 34 34 33 33 34 37 35 28 30 31
48 47 46 45 45 45 46 45 45 44 44 43 43 43 45 44 43 41 42 40 40 39 40 41 40 38 35 41 41 39 33 33 31 35 34 35 34 40 42 36 29 30 31
45 44 45 45 44 45 45 43 41 41 39 40 39 40 39 37 39 40 39 39 40 40 40 39 37 41 34 42 42 39 33 29 30 32 33 39 39 41 41 36 32 29 29
43 43 42 39 40 41 41 39 38 36 38 38 38 40 41 40 41 40 40 39 39 38 36 36 36 36 37 35 42 42 34 31 31 30 30 31 39 40 40 40 33 31 35
40 40 39 39 40 40 38 34 33 35 38 41 41 41 41 43 40 37 36 36 35 34 33 33 32 33 34 41 40 42 41 39 32 31 30 31 38 39 39 37 37 38 37
44 45 43 42 43 43 43 40 40 41 41 40 39 40 40 39 37 34 33 33 34 33 31 30 29 29 31 30 40 39 39 38 34 33 35 37 37 36 34 35 37 36 28
41 41 40 39 39 41 41 40 40 42 41 38 37 36 34 35 35 35 34 32 31 29 28 27 26 26 27 28 29 31 29 34 33 34 29 33 34 35 33 31 30 28 28
42 41 39 37 36 38 38 41 42 41 37 36 34 34 35 33 32 32 31 30 30 30 27 26 26 25 24 29 35 34 32 32 34 34 27 26 25 25 26 26 27 27 27
39 38 38 37 38 40 40 41 40 38 36 33 32 32 30 30 30 30 30 37 37 37 36 36 32 30 34 35 35 35 36 36 35 28 24 23 23 23 24 24 24 25 25
MSLP
1004.19 1003.94 1003.93 1003.88 1004.05 1004.05 1004.26 1004.49 1004.99 1005.49 1006.00 1007.11 1007.52 1007.93 1008.54 1009.33 1009.91 1010.41 1010.85 1011.81 1012.81 1013.67 1014.52 1014.79 1015.36 1015.84 1016.55 1017.18 1017.64 1018.08 1018.60 1019.10 1018.97 1019.02 1018.69 1018.52 1018.53 1018.81 1018.92 1018.87 1019.10 1019.39 1019.36
1003.84 1003.68 1003.60 1003.62 1003.67 1003.74 1003.79 1004.00 1004.31 1004.80 1005.41 1006.03 1006.97 1007.50 1008.53 1009.38 1009.79 1010.40 1011.19 1011.97 1013.00 1013.81 1014.62 1014.93 1015.31 1015.91 1016.45 1017.17 1017.78 1018.15 1018.82 1019.34 1019.22 1019.42 1019.29 1019.34 1019.29 1019.03 1018.78 1018.89 1019.15 1019.32 1019.40
1003.34 1003.44 1003.53 1003.37 1003.40 1003.41 1003.59 1003.82 1003.96 1004.26 1004.69 1005.33 1006.53 1008.13 1008.89 1009.83 1010.50 1011.13 1011.86 1012.50 1013.32 1014.00 1014.65 1014.88 1015.23 1015.84 1016.36 1017.13 1017.84 1018.20 1018.70 1019.32 1019.49 1019.35 1019.60 1019.89 1020.16 1019.78 1019.08 1019.08 1019.14 1019.37 1019.54
1002.61 1002.84 1003.07 1002.97 1002.89 1002.98 1003.17 1003.54 1003.87 1003.97 1004.20 1004.70 1005.78 1007.04 1008.11 1009.52 1010.53 1011.10 1012.01 1012.91 1013.81 1014.52 1014.89 1015.06 1015.46 1015.91 1016.44 1016.89 1017.91 1018.33 1018.55 1018.95 1019.56 1019.71 1019.57 1019.86 1020.20 1020.57 1020.53 1019.80 1019.60 1019.51 1019.69
1001.83 1001.94 1002.19 1002.40 1002.62 1002.79 1003.01 1002.95 1003.38 1003.79 1003.83 1004.28 1005.12 1006.60 1007.93 1009.28 1010.49 1011.44 1012.13 1013.23 1014.11 1014.58 1015.10 1015.34 1015.49 1015.99 1016.66 1017.16 1017.76 1018.41 1018.59 1018.91 1019.46 1019.73 1020.02 1020.18 1020.37 1020.49 1021.01 1020.75 1020.38 1020.05 1019.77
1001.40 1001.60 1001.61 1001.95 1002.39 1002.40 1002.39 1002.68 1002.84 1003.03 1003.57 1004.08 1004.95 1006.37 1007.52 1008.93 1010.45 1011.49 1012.30 1013.32 1014.32 1014.70 1015.08 1015.27 1015.60 1016.00 1016.81 1017.40 1018.04 1018.38 1018.80 1019.03 1019.40 1019.71 1020.02 1020.38 1020.76 1020.94 1021.16 1021.20 1020.82 1020.76 1020.09
1001.36 1001.71 1001.97 1002.42 1002.41 1002.23 1002.44 1002.44 1002.65 1002.75 1003.07 1003.98 1005.08 1006.34 1007.58 1008.59 1009.85 1011.01 1012.01 1013.03 1014.09 1014.76 1015.00 1015.30 1015.81 1016.28 1016.87 1017.51 1018.18 1018.67 1018.95 1019.24 1019.59 1019.80 1020.19 1020.29 1020.59 1020.72 1020.99 1021.30 1021.31 1021.10 1020.34
1001.40 1001.62 1002.11 1002.43 1002.46 1002.35 1002.27 1002.07 1002.46 1002.79 1003.10 1003.92 1005.09 1006.29 1007.61 1008.98 1010.00 1010.82 1011.79 1012.65 1013.63 1014.54 1015.03 1015.57 1016.11 1016.50 1017.05 1017.71 1018.24 1018.76 1019.04 1019.34 1019.60 1019.94 1020.14 1020.39 1020.47 1020.61 1020.92 1021.30 1021.51 1021.23 1020.93
1001.42 1001.73 1002.03 1002.35 1002.53 1002.36 1001.96 1001.99 1002.09 1002.69 1003.25 1004.08 1005.21 1006.48 1007.76 1008.73 1009.94 1011.07 1011.94 1012.79 1013.60 1014.27 1014.93 1015.49 1016.01 1016.66 1017.16 1017.75 1018.33 1018.78 1019.09 1019.32 1019.67 1019.93 1020.08 1020.30 1020.38 1020.51 1020.75 1020.98 1021.25 1021.57 1021.36
1001.43 1001.76 1002.17 1002.55 1002.76 1002.37 1001.63 1001.42 1001.85 1002.54 1003.39 1004.27 1005.49 1006.84 1007.95 1008.85 1009.89 1011.08 1011.90 1012.69 1013.52 1014.21 1014.81 1015.61 1016.30 1016.80 1017.27 1017.73 1018.19 1018.68 1019.11 1019.45 1019.64 1019.77 1020.03 1020.28 1020.38 1020.52 1020.72 1020.84 1020.94 1021.14 1021.25
1002.15 1002.14 1002.35 1002.61 1002.71 1002.12 1001.27 1001.43 1001.67 1002.68 1003.71 1004.62 1005.98 1007.35 1008.42 1009.19 1010.14 1011.22 1012.04 1012.85 1013.54 1014.33 1014.98 1015.75 1016.63 1017.34 1017.69 1017.83 1018.14 1018.65 1019.11 1019.45 1019.62 1019.75 1019.98 1020.21 1020.34 1020.47 1020.57 1020.63 1020.74 1020.91 1020.89
1002.18 1002.40 1002.53 1002.74 1002.68 1001.89 1001.46 1001.58 1001.61 1002.87 1004.13 1005.47 1006.71 1008.06 1008.84 1009.89 1010.75 1011.65 1012.47 1013.11 1013.95 1014.52 1015.37 1016.07 1016.86 1017.27 1017.78 1018.36 1018.40 1018.75 1019.02 1019.35 1019.63 1019.77 1019.91 1020.12 1020.17 1020.35 1020.37 1020.44 1020.57 1020.61 1020.44
1002.35 1002.58 1002.72 1002.93 1002.97 1001.92 1001.93 1001.92 1002.20 1003.78 1005.02 1006.43 1007.65 1008.83 1009.59 1010.45 1011.30 1012.04 1012.90 1013.73 1014.26 1014.99 1015.66 1016.29 1017.08 1017.53 1018.11 1018.67 1018.66 1018.88 1019.13 1019.31 1019.55 1019.69 1019.81 1019.91 1019.98 1020.14 1020.17 1020.22 1020.35 1020.29 1020.00
1002.40 1002.90 1003.06 1003.19 1003.05 1002.52 1002.90 1003.09 1003.79 1004.96 1006.23 1007.41 1008.52 1009.47 1010.13 1010.91 1011.58 1012.48 1013.34 1014.08 1014.65 1015.41 1016.27 1016.58 1017.19 1017.72 1018.52 1018.75 1018.95 1019.06 1019.30 1019.34 1019.49 1019.56 1019.57 1019.55 1019.62 1019.69 1019.76 1019.81 1019.80 1019.58 1019.55
1002.26 1002.79 1003.10 1003.36 1003.14 1003.39 1003.90 1004.25 1004.76 1006.18 1007.24 1008.34 1009.37 1009.95 1010.47 1011.14 1012.04 1012.92 1013.86 1014.57 1015.30 1015.96 1016.53 1017.00 1017.59 1018.34 1018.42 1018.77 1019.08 1019.47 1019.39 1019.53 1019.58 1019.55 1019.43 1019.34 1019.34 1019.25 1019.10 1018.92 1019.00 1019.03 1018.81
1002.46 1002.84 1003.23 1003.61 1003.90 1004.48 1005.18 1005.35 1006.01 1007.05 1008.09 1009.30 1009.99 1010.42 1010.92 1011.69 1012.64 1013.47 1014.29 1015.12 1015.81 1016.24 1016.89 1017.31 1018.03 1018.49 1018.50 1018.83 1019.34 1019.43 1019.58 1019.70 1019.72 1019.63 1019.35 1019.24 1019.10 1018.90 1018.74 1018.66 1018.54 1018.36 1018.06
1002.97 1003.33 1003.80 1004.44 1005.16 1005.87 1006.34 1006.92 1007.51 1008.11 1009.22 1010.21 1010.73 1011.16 1011.74 1012.64 1013.58 1014.48 1015.04 1015.84 1016.17 1016.55 1017.13 1017.79 1018.22 1018.48 1018.73 1019.02 1019.31 1019.48 1019.65 1019.69 1019.59 1019.45 1019.25 1019.06 1018.81 1018.65 1018.49 1018.32 1018.05 1017.83 1017.73
1003.34 1003.89 1004.68 1005.28 1006.02 1006.80 1007.42 1008.15 1008.89 1009.61 1010.64 1011.30 1011.51 1012.09 1012.78 1013.60 1014.52 1015.35 1016.08 1016.68 1016.81 1016.85 1017.39 1017.94 1018.32 1018.56 1018.69 1019.07 1019.33 1019.47 1019.58 1019.59 1019.50 1019.28 1019.02 1018.78 1018.50 1018.23 1017.87 1017.51 1017.39 1017.32 1017.17
1004.62 1005.19 1005.84 1006.44 1007.17 1007.99 1008.84 1009.55 1010.25 1010.95 1011.71 1012.28 1012.58 1013.28 1013.97 1014.91 1015.64 1015.99 1016.45 1017.22 1017.11 1017.43 1017.79 1018.15 1018.39 1018.72 1019.03 1019.20 1019.23 1019.36 1019.55 1019.57 1019.46 1019.20 1018.92 1018.57 1018.25 1017.87 1017.36 1017.02 1017.02 1016.89 1016.58
1006.43 1006.87 1007.40 1008.01 1008.65 1009.51 1010.24 1010.95 1011.59 1012.26 1013.26 1013.62 1014.03 1014.45 1014.86 1015.73 1016.44 1016.40 1016.63 1017.09 1017.55 1017.81 1017.98 1018.34 1018.60 1018.72 1018.92 1018.95 1019.06 1019.22 1019.39 1019.65 1019.58 1019.22 1018.84 1018.47 1017.98 1017.49 1017.03 1016.74 1016.69 1016.36 1015.99
1008.01 1008.55 1009.08 1009.73 1010.43 1010.86 1011.38 1012.02 1012.82 1013.41 1013.70 1014.61 1015.10 1015.22 1015.60 1016.12 1016.53 1016.88 1017.17 1017.71 1017.85 1018.07 1018.39 1018.59 1018.63 1018.68 1018.76 1018.86 1018.85 1018.97 1019.19 1019.35 1019.17 1018.81 1018.43 1018.03 1017.63 1017.08 1016.74 1016.35 1016.11 1015.84 1015.16
1009.18 1009.50 1010.16 1010.90 1011.37 1011.77 1011.97 1012.65 1013.53 1013.98 1014.23 1013.94 1015.43 1016.10 1016.26 1016.32 1016.91 1017.60 1017.84 1018.05 1018.34 1018.54 1018.68 1018.83 1019.01 1018.92 1018.91 1018.87 1018.89 1018.83 1018.84 1018.79 1018.73 1018.49 1018.09 1017.72 1017.20 1016.66 1016.29 1015.96 1015.74 1015.25 1014.72
1010.05 1010.62 1011.11 1011.63 1011.98 1012.48 1012.77 1013.41 1014.24 1014.45 1014.83 1015.50 1016.19 1016.62 1016.80 1017.20 1017.60 1018.01 1018.34 1018.50 1018.65 1018.87 1019.11 1019.27 1019.39 1019.43 1019.30 1019.22 1019.13 1019.12 1019.03 1018.89 1018.52 1018.22 1017.75 1017.26 1016.86 1016.61 1016.15 1015.87 1015.39 1015.09 1014.99
1010.96 1011.34 1011.73 1012.27 1012.86 1013.36 1013.83 1014.23 1014.64 1015.06 1015.61 1016.28 1016.78 1017.02 1017.25 1017.72 1017.99 1018.28 1018.60 1018.91 1019.14 1019.39 1019.61 1019.79 1019.97 1019.93 1019.87 1019.70 1019.46 1019.27 1019.00 1018.76 1018.38 1017.96 1017.57 1017.27 1016.90 1016.49 1016.14 1015.80 1015.47 1015.22 1014.86
1011.65 1012.20 1012.67 1013.22 1013.85 1014.31 1014.62 1014.92 1015.16 1015.52 1015.99 1016.53 1017.11 1017.51 1017.82 1018.22 1018.64 1018.88 1019.10 1019.40 1019.63 1019.76 1019.97 1020.14 1020.27 1020.22 1020.15 1019.87 1019.37 1019.05 1018.67 1018.26 1017.90 1017.45 1017.45 1017.33 1017.00 1016.72 1016.25 1015.84 1015.45 1014.99 1014.53
1012.33 1012.87 1013.38 1013.80 1014.41 1014.77 1015.06 1015.41 1015.67 1015.92 1016.52 1017.23 1017.73 1018.13 1018.53 1018.89 1019.15 1019.36 1019.57 1019.60 1019.70 1019.78 1019.90 1020.03 1020.11 1020.05 1019.89 1019.61 1019.26 1018.83 1018.29 1017.94 1017.67 1017.55 1017.69 1017.55 1017.30 1016.94 1016.41 1015.88 1015.23 1014.77 1014.30
Wind_Speed
11 9 10 9 8 9 9 12 11 12 10 5 6 7 9 7 8 6 10 11 9 8 6 5 6 6 6 5 5 3 5 4 3 1 3 1 2 3 3 3 2 4 4
13 13 11 9 11 10 9 8 9 11 12 9 4 3 5 4 4 6 8 9 7 8 5 6 6 7 6 7 4 4 2 2 3 1 1 3 4 2 4 3 2 1 2
14 15 15 12 10 14 11 9 9 9 10 9 8 6 7 5 4 5 6 6 8 6 6 6 7 7 6 5 4 4 4 3 2 4 3 2 1 3 2 2 2 1 1
13 14 14 11 11 12 13 12 9 9 8 11 10 13 9 9 3 5 7 7 7 5 5 6 6 7 6 8 5 4 3 3 3 2 3 3 3 2 4 3 2 3 2
9 10 11 12 11 7 6 11 12 9 8 13 12 10 10 7 8 8 13 10 6 6 5 6 8 8 5 5 7 5 5 3 3 2 1 1 0 2 3 4 4 5 4
4 4 3 4 5 7 7 5 9 9 9 9 9 14 15 15 11 11 10 8 6 5 7 8 7 7 7 6 5 5 5 5 4 3 2 2 1 0 0 2 3 5 4
2 3 6 6 7 8 8 7 7 8 10 10 10 12 12 14 15 14 10 13 9 6 7 7 8 6 6 7 6 6 5 4 3 3 1 1 0 1 1 1 4 4 3
2 3 3 6 8 8 9 9 7 6 9 12 10 9 16 10 9 10 11 9 9 8 10 8 8 8 7 6 6 4 4 5 3 3 2 0 1 1 1 2 1 5 3
5 3 4 6 8 9 9 9 9 7 9 10 8 12 13 14 12 13 11 9 10 9 9 9 9 7 8 7 6 4 4 3 3 2 2 2 2 1 2 1 1 3 6
5 3 6 7 8 13 8 8 8 8 9 10 11 12 13 13 13 13 13 13 12 10 11 9 9 7 7 7 6 4 4 2 0 2 0 2 2 2 2 2 2 2 3
5 4 4 5 9 13 6 8 9 9 9 10 14 15 13 13 13 12 13 13 12 11 11 10 8 6 5 6 5 5 4 2 1 1 2 3 2 3 3 2 2 3 3
3 4 4 5 9 9 4 7 8 12 14 14 14 14 14 14 14 13 12 13 12 11 10 8 7 7 6 4 5 3 3 1 2 3 3 4 3 4 4 3 5 3 4
6 4 6 4 8 5 2 7 12 15 15 15 14 14 14 14 14 14 13 12 12 11 10 10 7 7 6 4 4 4 3 2 3 3 4 4 4 4 3 4 4 3 6
12 4 2 4 7 4 4 11 15 15 14 14 13 14 14 14 14 14 12 12 12 10 7 7 7 7 5 4 3 3 3 3 4 4 4 4 5 5 5 4 5 6 5
14 5 5 3 1 6 9 12 14 14 13 14 13 14 15 15 15 14 13 12 9 9 8 8 7 5 4 4 5 4 5 5 6 6 6 4 6 12 12 7 4 5 5
4 7 6 2 5 11 9 10 12 10 13 13 13 14 15 15 14 13 12 11 9 9 8 7 6 4 4 7 4 4 4 5 5 6 6 5 9 9 14 16 19 16 10
4 7 6 11 11 10 10 11 10 11 13 13 14 14 15 15 13 12 12 10 7 7 8 6 5 4 5 5 4 6 3 5 6 6 6 5 4 9 6 11 17 15 17
7 8 10 11 11 10 11 12 12 13 13 13 14 14 14 14 12 10 8 6 6 7 6 5 4 3 2 4 4 7 5 5 6 6 7 6 6 7 10 7 4 6 6
11 11 12 12 12 13 13 13 13 14 14 13 15 14 13 12 10 11 8 5 6 6 5 4 4 3 4 3 4 6 4 5 7 6 6 7 7 14 20 10 5 9 9
12 13 13 13 14 13 14 14 14 15 13 12 12 12 13 11 6 6 7 5 5 4 4 4 2 1 2 3 5 5 2 5 5 5 6 15 14 21 21 13 12 12 10
14 13 14 14 14 13 15 15 13 13 12 12 9 8 9 9 9 7 6 4 5 4 3 2 2 2 1 1 6 9 2 3 5 5 5 4 18 22 22 23 9 11 15
13 13 13 12 11 13 13 13 10 10 9 11 11 10 8 8 7 6 5 5 5 4 4 4 3 3 4 8 7 10 10 13 5 6 4 6 20 23 24 18 20 21 18
11 11 12 13 10 12 12 14 10 11 12 11 10 9 9 7 6 6 5 3 4 4 3 3 3 4 4 4 11 12 15 16 10 6 15 23 22 22 14 16 19 17 6
10 11 12 13 12 10 10 10 11 10 11 11 9 7 7 6 6 4 4 4 4 4 4 4 4 4 4 4 4 4 5 11 9 12 8 13 17 15 14 11 8 5 6
10 10 11 11 12 11 10 9 10 11 11 9 7 6 5 6 5 4 4 4 4 4 2 2 2 3 4 4 12 12 8 7 10 14 4 6 4 6 6 6 7 7 7
11 11 12 12 12 11 11 10 9 9 9 7 5 5 5 4 4 4 4 3 3 2 1 3 3 3 8 13 15 17 19 18 19 4 4 5 6 6 7 8 9 8 11
Wind_Direction
246 246 232 246 246 236 224 202 176 181 177 185 185 180 190 152 158 158 150 138 135 141 146 135 130 131 133 144 128 114 109 29 346 307 350 290 148 170 208 167 215 157 177
244 248 249 223 226 237 239 225 202 174 188 185 181 184 117 85 115 119 114 123 129 125 141 142 135 122 116 107 115 128 107 103 21 95 66 5 340 314 218 175 150 168 131
240 242 247 245 228 221 233 241 221 199 177 174 121 89 85 71 69 81 96 102 103 122 145 136 126 123 120 120 113 108 114 144 25 57 131 43 262 317 334 183 135 204 105
236 241 248 257 244 227 214 224 236 205 188 173 146 159 162 154 154 136 117 109 114 120 132 121 121 116 119 117 128 112 110 103 123 42 47 84 133 119 329 338 344 2 346
212 217 220 229 240 250 240 214 213 217 186 182 160 154 134 117 130 121 118 116 125 126 129 132 125 122 113 111 116 120 102 92 126 118 83 29 242 196 162 275 300 340 340
250 258 244 247 245 244 234 219 218 190 168 161 152 151 147 140 140 145 137 131 142 149 148 141 124 115 115 114 120 111 109 105 97 94 105 134 147 94 63 295 301 274 285
233 302 327 307 266 231 226 221 222 190 158 144 130 146 150 144 147 149 147 145 150 160 153 132 126 117 120 115 122 122 120 108 108 107 100 77 177 169 228 265 282 277 302
268 256 299 314 298 259 221 196 192 176 148 141 142 154 137 142 145 146 149 142 148 152 141 134 121 117 113 121 120 120 123 119 116 130 124 135 306 321 196 213 247 304 267
245 236 2 340 318 291 216 203 174 177 150 143 149 134 140 140 145 136 138 142 136 141 139 128 127 128 127 133 135 133 128 121 151 166 180 200 248 280 271 263 205 209 294
120 29 39 7 321 299 229 190 174 165 148 149 126 133 131 131 134 137 135 141 144 137 126 121 122 122 122 123 115 112 110 114 159 165 140 304 295 311 311 281 271 252 247
4 351 39 351 302 291 224 175 151 141 138 120 125 114 112 117 123 129 134 135 124 128 125 123 124 117 120 124 119 114 130 154 274 322 263 276 287 277 272 288 284 271 259
327 309 48 349 296 289 228 162 138 136 114 108 107 116 119 119 122 122 128 122 127 123 122 116 122 115 116 117 113 122 117 154 309 301 315 294 298 307 295 284 278 266 276
312 13 30 346 295 296 134 105 109 106 107 107 112 117 123 127 130 126 127 131 125 122 118 120 124 118 104 109 90 74 33 356 310 288 276 275 287 289 282 283 288 299 299
308 294 62 292 278 66 84 93 95 103 107 111 119 127 132 132 126 124 124 116 110 107 110 99 103 103 118 95 72 40 354 332 310 301 283 277 267 261 269 269 266 272 273
259 188 139 268 210 94 92 100 100 106 114 121 129 133 130 125 121 120 118 115 115 109 106 105 94 106 122 89 53 14 3 344 326 313 298 284 290 300 296 291 257 261 266
82 118 135 158 77 99 94 90 101 103 117 124 126 122 118 114 113 111 107 105 111 116 108 94 104 112 97 91 48 14 352 323 313 305 296 302 297 295 310 310 304 302 302
146 134 127 102 89 89 93 87 86 99 110 121 119 114 111 108 107 107 106 117 130 114 105 112 121 108 111 107 41 353 342 310 295 286 290 289 294 311 280 285 293 296 295
127 113 106 99 98 99 96 103 100 104 108 113 106 101 102 103 103 102 95 107 119 111 113 109 102 91 104 113 36 346 339 317 299 294 290 286 288 283 298 283 261 272 271
81 86 93 97 99 102 106 106 106 104 106 100 99 100 103 104 106 118 118 116 96 92 93 102 89 69 57 127 8 358 333 311 312 312 325 325 313 305 310 317 301 307 289
73 87 96 97 95 99 108 101 98 96 92 87 84 84 93 104 128 106 95 93 96 107 96 78 62 158 185 329 339 338 341 333 313 315 311 308 315 316 316 317 313 301 301
83 89 85 86 96 94 96 95 101 98 106 108 110 130 117 111 107 102 86 108 91 86 85 86 352 8 164 234 333 332 349 281 283 278 285 280 315 311 312 311 314 303 306
92 96 104 106 102 106 106 100 110 142 133 109 105 103 104 96 86 101 88 77 70 62 41 42 13 4 28 1 337 320 318 321 325 308 301 294 307 321 319 320 314 309 319
110 123 125 125 120 123 126 117 112 108 105 102 100 97 97 101 97 92 84 79 58 57 31 25 19 5 1 352 354 355 334 329 321 316 312 320 322 318 316 315 319 326 317
92 88 91 92 94 94 99 105 111 112 109 108 105 97 96 91 84 78 66 56 58 41 28 23 14 348 342 345 343 323 310 314 314 304 300 321 320 322 325 325 316 307 305
109 105 104 100 98 101 99 103 108 110 101 93 91 85 81 83 78 79 81 72 69 80 42 356 347 340 333 307 329 330 319 306 314 327 335 318 322 325 319 315 309 311 310
101 100 101 103 103 103 97 92 91 92 99 93 83 82 78 71 65 56 42 36 90 64 14 330 321 299 321 328 330 323 321 332 328 340 322 320 321 316 317 315 314 309 308